Location: downtown San Diego
(32.7310°N, 117.1990°W)
Time: 02:50:58
(UTC-08:00)

USA 229 DEB - Pass Details

Date: 12 July 2018
Orbit: 1021 x 1192 km, 63.4° (Epoch: 06 November)

Event Time Altitude Azimuth Distance (km) Brightness Sun altitude
Rises 22:33:33 0° 331° (NNW) 3,978 8.0 -25.9°
Reaches altitude 10° 22:36:13 10° 333° (NNW) 3,038 7.1 -26.2°
Maximum altitude 22:43:32 78° 60° (ENE) 1,197 3.8 -27.1°
Enters shadow 22:45:03 59° 129° (SE) 1,337 3.8 -27.3°
